[Date Prev][Date Next][Thread Prev][Thread Next] - [Date Index][Thread Index][Author Index]

2 Line ISS Keps 12-31



ISS
1 25544U 98067A   02365.18999318  .00016400  00000-0  21812-3 0  5291
2 25544  51.6349 144.0935 0004328 338.6850 208.7516 15.58319270234836


----
Via the sarex mailing list at AMSAT.ORG courtesy of AMSAT-NA.
To unsubscribe, send "unsubscribe sarex" to Majordomo@amsat.org



AMSAT Top AMSAT Home